Ionia, MI

2:49 AM EDT on August 20, 2017 (GMT -0400)
Ionia

Weather History for KY70 - May, 2014

Change the Weather History Date:

Saturday, May 31, 2014

  Actual Average (KGRR) Record (KGRR)
Temperature  
Mean Temperature 70 °F -  
Max Temperature 84 °F 73 °F 95 °F (1934)
Min Temperature 57 °F 50 °F 36 °F (1966)
Cooling Degree Days 6    
Growing Degree Days 20 (Base 50)    
Moisture  
Dew Point 52 °F    
Average Humidity 54    
Maximum Humidity 82    
Minimum Humidity 30    
Precipitation  
Precipitation 0.00 in - - ()
Sea Level Pressure  
Sea Level Pressure 30.18 in    
Wind  
Wind Speed 5 mph (East)    
Max Wind Speed 20 mph    
Max Gust Speed 21 mph    
Visibility 10 miles    
Events      
Averages and records for this station are not official NWS values.
T = Trace of Precipitation, MM = Missing Value Source: NWS Daily Summary

Daily Weather History Graph

Daily Weather History Graph

Search for Another Location

Airport or City:

Trip Planner

Search our weather history database for the weather conditions in past years. The results will help you decide how hot, cold, wet, or windy it might be!

Date:

Astronomy

May. 31, 2014 Rise Set
Actual Time 6:04 AM EDT 9:11 PM EDT
Civil Twilight 5:30 AM EDT 9:46 PM EDT
Nautical Twilight 4:46 AM EDT 10:30 PM EDT
Astronomical Twilight 3:53 AM EDT 11:23 PM EDT
Moon 8:43 AM EDT (5/31) 11:26 PM EDT (5/31)
Length of Visible Light 16h 15m
Length of Day
15h 07m
Waxing Crescent, 8% of the Moon is Illuminated
May 31
Waxing Crescent
Jun 5
First Quarter
Jun 13
Full
Jun 19
Last Quarter
Jun 27
New

Hourly Weather History & Observations

Time (EDT) Temp. Dew Point Humidity Pressure Visibility Wind Dir Wind Speed Gust Speed Precip Events Conditions
12:14 AM 64.9 °F 52.9 °F 65% 30.17 in 10.0 mi Calm Calm - N/A   Clear
12:34 AM 65.3 °F 54.1 °F 67% 30.17 in 10.0 mi Calm Calm - N/A   Clear
12:54 AM 64.4 °F 54.7 °F 71% 30.18 in 10.0 mi NE 6.9 mph - N/A   Clear
1:54 AM 62.6 °F 55.0 °F 76% 30.19 in 10.0 mi ENE 3.5 mph - N/A   Clear
2:14 AM 62.1 °F 55.4 °F 79% 30.20 in 10.0 mi ENE 4.6 mph - N/A   Clear
2:34 AM 61.7 °F 55.4 °F 80% 30.20 in 10.0 mi ENE 5.8 mph - N/A   Clear
2:54 AM 61.0 °F 55.0 °F 81% 30.20 in 10.0 mi ENE 4.6 mph - N/A   Clear
3:14 AM 60.8 °F 55.0 °F 81% 30.20 in 10.0 mi ENE 3.5 mph - N/A   Clear
3:34 AM 60.3 °F 54.9 °F 82% 30.21 in 10.0 mi NE 3.5 mph - N/A   Clear
3:54 AM 59.5 °F 53.8 °F 81% 30.21 in 10.0 mi ENE 5.8 mph - N/A   Clear
4:13 AM 59.2 °F 53.6 °F 82% 30.21 in 10.0 mi NE 4.6 mph - N/A   Clear
4:34 AM 59.0 °F 52.7 °F 80% 30.21 in 10.0 mi NE 5.8 mph - N/A   Clear
4:53 AM 58.6 °F 52.0 °F 79% 30.22 in 10.0 mi ENE 6.9 mph - N/A   Clear
5:14 AM 58.6 °F 51.8 °F 78% 30.22 in 10.0 mi ENE 8.1 mph - N/A   Clear
5:34 AM 58.1 °F 51.4 °F 78% 30.22 in 10.0 mi ENE 6.9 mph - N/A   Clear
5:53 AM 57.7 °F 51.1 °F 78% 30.22 in 10.0 mi ENE 6.9 mph - N/A   Clear
6:14 AM 57.4 °F 50.9 °F 79% 30.23 in 10.0 mi East 4.6 mph - N/A   Clear
6:34 AM 57.7 °F 50.9 °F 78% 30.23 in 10.0 mi East 5.8 mph - N/A   Clear
6:53 AM 58.1 °F 51.1 °F 77% 30.24 in 10.0 mi East 5.8 mph - N/A   Clear
7:14 AM 58.8 °F 51.4 °F 76% 30.24 in 10.0 mi ENE 6.9 mph - N/A   Clear
7:34 AM 59.9 °F 51.8 °F 75% 30.24 in 10.0 mi ENE 6.9 mph - N/A   Clear
7:54 AM 61.0 °F 51.8 °F 72% 30.24 in 10.0 mi East 6.9 mph - N/A   Clear
8:14 AM 62.1 °F 52.2 °F 70% 30.24 in 10.0 mi East 5.8 mph - N/A   Clear
8:34 AM 63.5 °F 52.5 °F 67% 30.25 in 10.0 mi East 6.9 mph - N/A   Clear
8:54 AM 65.1 °F 53.2 °F 65% 30.24 in 10.0 mi ESE 9.2 mph - N/A   Clear
9:14 AM 66.4 °F 53.2 °F 63% 30.24 in 10.0 mi ESE 5.8 mph - N/A   Clear
9:34 AM 67.5 °F 53.1 °F 60% 30.24 in 10.0 mi ESE 5.8 mph - N/A   Clear
9:54 AM 68.9 °F 53.8 °F 58% 30.24 in 10.0 mi East 3.5 mph - N/A   Clear
10:14 AM 70.7 °F 54.3 °F 56% 30.24 in 10.0 mi SE 5.8 mph - N/A   Clear
10:34 AM 72.0 °F 53.2 °F 52% 30.23 in 10.0 mi SE 4.6 mph - N/A   Clear
11:14 AM 74.5 °F 50.5 °F 43% 30.22 in 10.0 mi South 3.5 mph - N/A   Clear
11:34 AM 76.5 °F 51.1 °F 41% 30.22 in 10.0 mi Calm Calm - N/A   Clear
11:54 AM 77.0 °F 50.4 °F 39% 30.22 in 10.0 mi Calm Calm - N/A   Clear
12:34 PM 77.7 °F 49.3 °F 37% 30.21 in 10.0 mi SSE 4.6 mph - N/A   Clear
12:54 PM 78.8 °F 49.1 °F 35% 30.20 in 10.0 mi Calm Calm - N/A   Clear
1:33 PM 81.0 °F 50.9 °F 35% 30.19 in 10.0 mi WNW 5.8 mph - N/A   Clear
1:54 PM 81.1 °F 50.5 °F 34% 30.19 in 10.0 mi Calm Calm - N/A   Clear
2:14 PM 81.0 °F 49.3 °F 33% 30.19 in 10.0 mi Calm Calm - N/A   Clear
2:33 PM 81.7 °F 50.0 °F 33% 30.18 in 10.0 mi Calm Calm - N/A   Clear
2:54 PM 82.9 °F 50.5 °F 32% 30.17 in 10.0 mi SSE 5.8 mph - N/A   Clear
3:14 PM 82.8 °F 51.1 °F 33% 30.17 in 10.0 mi Calm Calm - N/A   Clear
3:33 PM 82.4 °F 50.9 °F 33% 30.17 in 10.0 mi Calm Calm - N/A   Clear
3:54 PM 82.6 °F 50.4 °F 33% 30.16 in 10.0 mi Calm Calm - N/A   Clear
4:14 PM 84.2 °F 50.9 °F 32% 30.15 in 10.0 mi North 4.6 mph - N/A   Clear
4:33 PM 82.6 °F 50.9 °F 33% 30.15 in 10.0 mi NE 4.6 mph - N/A   Clear
4:54 PM 83.3 °F 48.7 °F 30% 30.14 in 10.0 mi SSW 3.5 mph - N/A   Clear
5:14 PM 82.9 °F 49.6 °F 31% 30.14 in 10.0 mi NE 6.9 mph - N/A   Clear
5:33 PM 83.7 °F 50.7 °F 32% 30.13 in 10.0 mi East 5.8 mph - N/A   Clear
5:54 PM 82.8 °F 49.5 °F 31% 30.13 in 10.0 mi East 4.6 mph - N/A   Clear
6:14 PM 82.8 °F 50.4 °F 32% 30.12 in 10.0 mi ENE 3.5 mph - N/A   Clear
6:33 PM 82.6 °F 50.5 °F 33% 30.12 in 10.0 mi East 6.9 mph - N/A   Clear
6:54 PM 82.0 °F 49.8 °F 32% 30.12 in 10.0 mi East 9.2 mph - N/A   Clear
7:14 PM 81.7 °F 50.7 °F 34% 30.11 in 10.0 mi East 8.1 mph - N/A   Clear
7:33 PM 80.6 °F 51.8 °F 37% 30.11 in 10.0 mi SE 9.2 mph - N/A   Clear
7:54 PM 79.7 °F 50.9 °F 37% 30.11 in 10.0 mi SE 9.2 mph - N/A   Clear
8:14 PM 78.6 °F 50.5 °F 37% 30.10 in 10.0 mi SE 10.4 mph - N/A   Clear
8:33 PM 77.4 °F 51.1 °F 40% 30.11 in 10.0 mi SE 6.9 mph - N/A   Clear
8:54 PM 75.4 °F 52.2 °F 44% 30.11 in 10.0 mi ESE 4.6 mph - N/A   Clear
9:13 PM 75.0 °F 52.0 °F 44% 30.11 in 10.0 mi ESE 3.5 mph - N/A   Clear
9:34 PM 72.3 °F 53.8 °F 52% 30.12 in 10.0 mi East 5.8 mph - N/A   Clear
9:54 PM 70.9 °F 53.8 °F 55% 30.14 in 10.0 mi SE 12.7 mph 18.4 mph N/A   Clear
10:13 PM 73.0 °F 55.4 °F 54% 30.14 in 10.0 mi SSE 11.5 mph - N/A   Clear
10:34 PM 71.8 °F 54.5 °F 54% 30.15 in 10.0 mi SSE 13.8 mph 20.7 mph N/A   Clear
10:54 PM 70.9 °F 53.8 °F 55% 30.15 in 10.0 mi SSE 15.0 mph 18.4 mph N/A   Clear
11:14 PM 70.2 °F 52.3 °F 53% 30.16 in 10.0 mi SSE 18.4 mph - N/A   Clear
11:34 PM 68.2 °F 52.0 °F 56% 30.16 in 10.0 mi SSE 13.8 mph - N/A   Clear
11:54 PM 68.0 °F 49.6 °F 52% 30.16 in 10.0 mi SSE 19.6 mph - N/A   Clear